Big Bear Station Historical Data
Daily Summary for February 2, 2017 Units:  English    Metric   Both
Next Day »
Daily Weekly Monthly Yearly Custom
  High: Low: Average:
Temperature: 46.9 °F 31.8 °F 38.7 °F
Dew Point: 34.7 °F 4.5 °F 21 °F
Humidity: 91% 26% 53%
Wind Speed: 3.7mph 0.0mph 1.5mph
Wind Gust: -999.0mph - -
Wind- - WSW
Pressure: 30.19 in 30.13 in -
Precipitation: 0.00 in    
Historical Graphs
 
 
Tabular Data for February 2, 2017
Time Temperature Dew Point Pressure Wind Wind Speed Wind Gust Humidity Rainfall Rate (Hourly)
00:04 36.3 °F 11.2 °F 30.14 in WNW 1.1 mph -999.0 mph 35% 0 in
00:19 36.1 °F 9.1 °F 30.14 in WNW 1.7 mph -999.0 mph 32% 0 in
00:35 36.0 °F 7.5 °F 30.14 in Calm   -999.0 mph 30% 0 in
00:50 35.4 °F 4.7 °F 30.14 in South 1.1 mph -999.0 mph 27% 0 in
01:05 35.1 °F 6.7 °F 30.15 in West 1.7 mph -999.0 mph 30% 0 in
01:20 34.7 °F 7.1 °F 30.14 in WNW 1.1 mph -999.0 mph 31% 0 in
01:35 34.7 °F 7.1 °F 30.15 in Calm   -999.0 mph 31% 0 in
01:51 34.3 °F 8.1 °F 30.15 in Calm   -999.0 mph 33% 0 in
02:06 35.1 °F 8.2 °F 30.15 in SSW 1.7 mph -999.0 mph 32% 0 in
02:22 35.2 °F 6.8 °F 30.15 in NNW 3.2 mph -999.0 mph 30% 0 in
02:37 35.2 °F 5.3 °F 30.14 in NNW 2.2 mph -999.0 mph 28% 0 in
02:52 35.4 °F 5.5 °F 30.14 in SW 3.2 mph -999.0 mph 28% 0 in
03:07 35.4 °F 6.3 °F 30.15 in South 3.2 mph -999.0 mph 29% 0 in
03:22 34.9 °F 6.6 °F 30.14 in South 1.1 mph -999.0 mph 30% 0 in
03:38 34.3 °F 4.5 °F 30.14 in Calm   -999.0 mph 28% 0 in
03:53 34.3 °F 6.8 °F 30.14 in WSW 1.7 mph -999.0 mph 31% 0 in
04:08 34.0 °F 5.0 °F 30.14 in WSW 1.1 mph -999.0 mph 29% 0 in
04:23 34.0 °F 5.0 °F 30.14 in WSW 1.7 mph -999.0 mph 29% 0 in
04:38 34.2 °F 6.0 °F 30.14 in Calm   -999.0 mph 30% 0 in
04:54 34.2 °F 8.1 °F 30.14 in West 1.7 mph -999.0 mph 33% 0 in
05:09 34.0 °F 5.0 °F 30.15 in Calm   -999.0 mph 29% 0 in
05:24 33.8 °F 9.0 °F 30.15 in SSW 2.2 mph -999.0 mph 35% 0 in
05:39 32.7 °F 11.0 °F 30.15 in South 2.2 mph -999.0 mph 40% 0 in
05:55 33.1 °F 9.0 °F 30.15 in SSW 3.2 mph -999.0 mph 36% 0 in
06:10 32.7 °F 6.7 °F 30.16 in South 1.7 mph -999.0 mph 33% 0 in
06:25 31.8 °F 5.9 °F 30.16 in Calm   -999.0 mph 33% 0 in
06:40 31.8 °F 7.2 °F 30.16 in Calm   -999.0 mph 35% 0 in
06:55 32.4 °F 8.4 °F 30.15 in Calm   -999.0 mph 36% 0 in
07:11 33.6 °F 5.4 °F 30.16 in WNW 2.2 mph -999.0 mph 30% 0 in
07:26 35.6 °F 5.7 °F 30.16 in NW 2.2 mph -999.0 mph 28% 0 in
07:41 35.8 °F 7.4 °F 30.16 in NNW 2.7 mph -999.0 mph 30% 0 in
07:56 37.0 °F 7.7 °F 30.17 in WNW 2.7 mph -999.0 mph 29% 0 in
08:11 38.3 °F 7.2 °F 30.16 in NNW 3.7 mph -999.0 mph 27% 0 in
08:27 39.6 °F 7.5 °F 30.16 in West 2.2 mph -999.0 mph 26% 0 in
08:42 40.8 °F 9.4 °F 30.16 in NW 2.7 mph -999.0 mph 27% 0 in
08:57 41.7 °F 10.1 °F 30.17 in WSW 2.7 mph -999.0 mph 27% 0 in
09:13 42.1 °F 10.5 °F 30.17 in NNW 1.7 mph -999.0 mph 27% 0 in
09:28 42.3 °F 9.8 °F 30.17 in NNW 2.2 mph -999.0 mph 26% 0 in
09:43 43.3 °F 10.7 °F 30.18 in West 2.2 mph -999.0 mph 26% 0 in
09:59 44.8 °F 12.8 °F 30.18 in West 1.7 mph -999.0 mph 27% 0 in
10:15 44.4 °F 17.1 °F 30.18 in WNW 3.2 mph -999.0 mph 33% 0 in
10:30 43.3 °F 17.5 °F 30.19 in NW 3.2 mph -999.0 mph 35% 0 in
10:45 43.5 °F 19.6 °F 30.18 in NW 1.7 mph -999.0 mph 38% 0 in
11:00 43.3 °F 23.9 °F 30.18 in NW 2.2 mph -999.0 mph 46% 0 in
11:15 43.7 °F 27.2 °F 30.18 in NW 2.2 mph -999.0 mph 52% 0 in
11:31 43.9 °F 25.0 °F 30.17 in NNW 2.2 mph -999.0 mph 47% 0 in
11:46 44.6 °F 28.1 °F 30.17 in NNW 2.2 mph -999.0 mph 52% 0 in
12:01 46.6 °F 29.9 °F 30.16 in NW 2.2 mph -999.0 mph 52% 0 in
12:17 46.9 °F 29.7 °F 30.16 in NNW 2.2 mph -999.0 mph 51% 0 in
12:32 46.8 °F 28.6 °F 30.15 in WNW 2.2 mph -999.0 mph 49% 0 in
12:47 46.2 °F 29.1 °F 30.15 in NW 2.7 mph -999.0 mph 51% 0 in
13:03 44.6 °F 28.5 °F 30.15 in NW 3.2 mph -999.0 mph 53% 0 in
13:18 44.4 °F 29.2 °F 30.14 in NW 1.7 mph -999.0 mph 55% 0 in
13:33 45.1 °F 30.3 °F 30.14 in ESE 2.7 mph -999.0 mph 56% 0 in
13:48 45.5 °F 30.3 °F 30.14 in NW 1.7 mph -999.0 mph 55% 0 in
14:03 45.1 °F 30.8 °F 30.14 in NW 2.7 mph -999.0 mph 57% 0 in
14:19 45.1 °F 30.3 °F 30.14 in West 2.2 mph -999.0 mph 56% 0 in
14:34 45.0 °F 31.1 °F 30.14 in NNW 1.7 mph -999.0 mph 58% 0 in
14:49 45.1 °F 31.6 °F 30.14 in NW 1.1 mph -999.0 mph 59% 0 in
15:04 46.0 °F 31.6 °F 30.14 in NNW 2.2 mph -999.0 mph 57% 0 in
15:19 45.3 °F 32.2 °F 30.14 in NW 1.7 mph -999.0 mph 60% 0 in
15:35 45.1 °F 32.0 °F 30.14 in NW 1.7 mph -999.0 mph 60% 0 in
15:50 44.6 °F 32.0 °F 30.14 in East 2.2 mph -999.0 mph 61% 0 in
16:05 44.2 °F 32.0 °F 30.14 in NE 1.1 mph -999.0 mph 62% 0 in
16:20 43.5 °F 32.1 °F 30.15 in Calm   -999.0 mph 64% 0 in
16:35 42.6 °F 32.0 °F 30.14 in WNW 1.7 mph -999.0 mph 66% 0 in
16:51 41.9 °F 32.5 °F 30.15 in West 1.1 mph -999.0 mph 69% 0 in
17:06 40.8 °F 32.5 °F 30.15 in NW 1.7 mph -999.0 mph 72% 0 in
17:21 39.9 °F 32.3 °F 30.15 in Calm   -999.0 mph 74% 0 in
17:36 39.2 °F 32.3 °F 30.15 in Calm   -999.0 mph 76% 0 in
17:51 38.8 °F 32.5 °F 30.15 in Calm   -999.0 mph 78% 0 in
18:07 38.1 °F 32.5 °F 30.15 in Calm   -999.0 mph 80% 0 in
18:22 38.1 °F 32.8 °F 30.15 in Calm   -999.0 mph 81% 0 in
18:37 36.7 °F 31.7 °F 30.16 in South 1.7 mph -999.0 mph 82% 0 in
18:53 36.1 °F 31.7 °F 30.16 in Calm   -999.0 mph 84% 0 in
19:08 35.8 °F 31.7 °F 30.16 in SSE 1.7 mph -999.0 mph 85% 0 in
19:23 35.6 °F 32.1 °F 30.16 in South 1.7 mph -999.0 mph 87% 0 in
19:39 35.6 °F 32.1 °F 30.16 in SSE 1.1 mph -999.0 mph 87% 0 in
19:54 35.2 °F 32.0 °F 30.16 in Calm   -999.0 mph 88% 0 in
20:09 35.1 °F 32.2 °F 30.16 in Calm   -999.0 mph 89% 0 in
20:24 35.2 °F 32.6 °F 30.16 in South 2.2 mph -999.0 mph 90% 0 in
20:39 35.1 °F 32.7 °F 30.16 in Calm   -999.0 mph 91% 0 in
20:55 35.2 °F 32.6 °F 30.16 in Calm   -999.0 mph 90% 0 in
21:10 36.1 °F 33.7 °F 30.16 in Calm   -999.0 mph 91% 0 in
21:26 36.7 °F 34.3 °F 30.16 in ESE 1.1 mph -999.0 mph 91% 0 in
21:41 36.9 °F 34.5 °F 30.16 in Calm   -999.0 mph 91% 0 in
21:56 37.6 °F 34.7 °F 30.15 in Calm   -999.0 mph 89% 0 in
22:11 37.2 °F 34.3 °F 30.15 in Calm   -999.0 mph 89% 0 in
22:27 37.2 °F 33.4 °F 30.15 in WNW 1.7 mph -999.0 mph 86% 0 in
22:42 36.9 °F 32.5 °F 30.15 in SE 1.7 mph -999.0 mph 84% 0 in
22:57 36.5 °F 32.1 °F 30.15 in Calm   -999.0 mph 84% 0 in
23:13 36.0 °F 31.0 °F 30.15 in Calm   -999.0 mph 82% 0 in
23:28 35.6 °F 30.9 °F 30.14 in SE 3.2 mph -999.0 mph 83% 0 in
23:43 36.5 °F 34.1 °F 30.14 in ESE 1.7 mph -999.0 mph 91% 0 in
23:58 37.6 °F 34.4 °F 30.13 in SE 2.2 mph -999.0 mph 88% 0 in
Big Bear CA Weather